Home   Weather   Majuro   Past weeks

Flag for Marshall Islands Past Weather in Majuro, Marshall Islands — Yesterday and Last 2 Weeks

Now
86 °F

Broken clouds.


Feels Like: 97 °F
Forecast: 83 / 87 °F
Wind: 9 mph from Southeast

Location: Majuro Atoll

Current Time: Sep 29, 2016 at 6:51:01 PM

Latest Report: Sep 29, 2016 at 5:52 PM


Visibility: 15 mi

Pressure: 29.74 "Hg

Humidity: 76%

Dew Point: 77 °F

Location of MajuroLocation

Past Weather in Majuro — Graph

°F

Majuro Temperature Yesterday

Maximum temperature yesterday: 84 °F (at 7:58 AM)
Minimum temperature yesterday: 78 °F (at 11:52 AM)
Average temperature yesterday: 82 °F

High & Low Weather Summary for the Past Weeks

 TemperatureHumidityPressure
High90 °F (Sep 15, 12:50 PM)94% (Sep 18, 2:50 AM)29.88 "Hg (Sep 18, 2:50 AM)
Low78 °F (Sep 28, 11:52 AM)67% (Sep 17, 9:50 AM)29.68 "Hg (Sep 28, 2:52 PM)
Average84 °F81%29.80 "Hg
* Reported Sep 14 4:50 PM — Sep 29 4:54 PM, Majuro, Weather by CustomWeather, © 2016

Note: Actual official high and low records may vary slightly from our data, if they occured in-between our weather recording intervals... More about our weather records

Advertising

Majuro Weather History for the Previous 24 Hours

Scroll right to see more
 ConditionsComfort  
Time TempWeatherWind HumidityBarometerVisibility
4:54 PM
Thu, Sep 29
87 °FBroken clouds.9 mph76%29.72 "Hg15 mi
3:52 PM88 °FBroken clouds.7 mph75%29.72 "Hg15 mi
2:56 PM87 °FBroken clouds.7 mph75%29.72 "Hg15 mi
1:55 PM88 °FBroken clouds.10 mph74%29.72 "Hg15 mi
12:50 PM88 °FBroken clouds.8 mph75%29.75 "Hg15 mi
11:55 AM88 °FCloudy.9 mph76%29.78 "Hg15 mi
10:54 AM86 °FCloudy.5 mph79%29.80 "Hg15 mi
9:55 AM87 °FCloudy.8 mph78%29.80 "Hg15 mi
8:54 AM85 °FMore clouds than sun.6 mph79%29.80 "Hg15 mi
7:51 AM83 °FMore clouds than sun.6 mph83%29.78 "Hg15 mi
5:51 AM82 °FOvercast.6 mph82%29.75 "Hg15 mi
4:51 AM83 °FPartly cloudy.7 mph81%29.74 "Hg15 mi
3:51 AM82 °FPartly cloudy.5 mph82%29.74 "Hg15 mi
2:50 AM82 °FPartly cloudy.2 mph81%29.75 "Hg15 mi
1:51 AM82 °FPartly cloudy.No wind81%29.75 "Hg15 mi
12:51 AM81 °FOvercast.No wind83%29.77 "Hg15 mi
11:53 PM
Wed, Sep 28
81 °FOvercast.No wind81%29.79 "Hg15 mi
10:52 PM80 °FOvercast.No wind82%29.81 "Hg15 mi
9:51 PM82 °FOvercast.2 mph79%29.82 "Hg15 mi
8:52 PM83 °FOvercast.2 mph78%29.80 "Hg15 mi
7:53 PM83 °FOvercast.6 mph76%29.78 "Hg15 mi
6:51 PM83 °FCloudy.5 mph78%29.76 "Hg15 mi
Weather by CustomWeather, © 2016

See weather overviewHow to use our weather pages